FW0598 Weather Reports


time (UTC)temp
C
wind
direction
speed
KPH
gust
KPH
rain 1hr
cm
rain 24hr
cm
rain mn
cm
humidity
%
barometer
mb
20260504024521 17 150 0.0 0.0 0.00 0.15 0.15 92 1002.3
20260504023117 17 159 0.0 0.0 0.00 0.15 0.15 94 1002.5
20260504021556 16 355 0.0 8.0 0.03 0.15 0.15 96 1002.9
20260504020052 16 57 0.0 0.0 0.03 0.15 0.15 95 1003.3
20260504014531 16 110 0.0 0.0 0.03 0.15 0.15 96 1003.7
20260504013028 15 133 0.0 0.0 0.03 0.15 0.15 96 1003.8
20260504011508 15 53 0.0 1.6 0.00 0.15 0.15 96 1003.9
20260504010005 15 62 0.0 0.0 0.05 0.15 0.15 96 1004.0
20260504004550 15 65 0.0 0.0 0.05 0.15 0.15 96 1004.1
20260504003047 15 64 0.0 0.0 0.05 0.15 0.15 96 1004.5
20260504001520 15 64 0.0 0.0 0.08 0.15 0.15 96 1004.7
20260504000018 14 64 0.0 0.0 0.08 0.10 0.10 96 1004.7
20260503234558 14 64 0.0 0.0 0.08 0.10 0.10 96 1004.7
20260503233056 13 64 0.0 0.0 0.05 0.08 0.08 96 1004.7
20260503231533 13 64 0.0 0.0 0.05 0.05 0.05 95 1005.1
20260503230033 12 64 0.0 0.0 0.03 0.03 0.03 95 1005.0
20260503224609 11 64 0.0 0.0 0.03 0.03 0.03 95 1005.0
20260503223006 11 64 0.0 0.0 0.03 0.03 0.03 94 1005.0
20260503221553 11 64 0.0 0.0 0.00 0.00 0.00 94 1004.9
20260503220048 10 64 0.0 0.0 0.00 0.00 0.00 94 1004.9
20260503214527 10 64 0.0 0.0 0.00 0.00 0.00 94 1004.8
20260503213026 -17 0.0 0.0 0.00 0.00 0.00 1004.8
20260503211502 -17 0.0 0.0 0.00 0.00 0.00 1004.6
20260503210059 -17 0.0 0.0 0.00 0.00 0.00 1004.5
20260503204540 -17 0.0 0.0 0.00 0.00 0.00 1004.2
20260503203034 -17 0.0 0.0 0.00 0.00 0.00 1004.2
20260503201511 -17 0.0 0.0 0.00 0.00 0.00 1004.2
20260503200008 -17 0.0 0.0 0.00 0.00 0.00 1004.0
20260503194544 -17 0.0 0.0 0.00 0.00 0.00 1004.0
20260503193044 -17 0.0 0.0 0.00 0.00 0.00 1003.9
20260503191519 11 64 0.0 0.0 0.00 0.00 0.00 93 1004.1
20260503190016 11 64 0.0 0.0 0.00 0.00 0.00 93 1004.2
20260503184554 11 64 0.0 0.0 0.00 0.00 0.00 94 1004.5
20260503183107 11 64 0.0 0.0 0.00 0.00 0.00 94 1004.4
20260503181529 11 64 0.0 0.0 0.00 0.00 0.00 94 1004.7
20260503180027 11 64 0.0 0.0 0.00 0.00 0.00 94 1004.9
20260503174508 11 64 0.0 0.0 0.00 0.00 0.00 93 1004.9
20260503173019 11 64 0.0 0.0 0.00 0.00 0.00 93 1005.0
20260503171546 11 64 0.0 0.0 0.00 0.00 0.00 93 1005.1
20260503100107 12 65 0.0 0.0 0.00 0.00 0.00 82 1006.5
20260503081557 16 65 0.0 0.0 0.00 0.00 0.00 76 1006.0
20260503071545 18 65 0.0 0.0 0.00 0.00 0.00 72 1005.6
20260503054529 21 53 0.0 0.0 0.00 0.00 0.00 68 1005.6
20260503053008 21 46 0.0 0.0 0.00 0.00 0.00 66 1005.8
20260503051501 21 46 0.0 0.0 0.00 0.00 0.00 65 1005.9
20260503050042 21 57 0.0 0.0 0.00 0.00 0.00 62 1006.1
20260503044543 22 35 0.0 1.6 0.00 0.00 0.00 62 1006.0
20260503043023 22 34 0.0 0.0 0.00 0.00 0.00 61 1006.1
20260503041518 22 17 0.0 0.0 0.00 0.00 0.00 64 1006.1
20260503040057 21 360 0.0 0.0 0.00 0.00 0.00 64 1006.2
20260503034610 21 268 0.0 0.0 0.00 0.00 0.00 66 1006.5
20260503033038 20 213 0.0 0.0 0.00 0.00 0.00 67 1006.8
20260503031530 20 286 0.0 0.0 0.00 0.00 0.00 68 1007.1
20260503030010 20 138 0.0 1.6 0.00 0.00 0.00 67 1007.3